Вернуться в каталог

NOAA 16 DEB

АктивенSSO
NORAD 42350·DEBRIS·🇺🇸 United States

Запущен Sep 21, 2000 с Vandenberg Space Force Base

Loading…

Ближайшие Пролёты (ближайшие 24 часа)

TLE

УстаревающийSource: Space-Track

Эпоха: Sep 5, 2026, 05:03 UTC

1 42350U 00055QS  26248.21078079  .00000430  00000-0  26378-3 0  9996
2 42350  98.6555 230.3524 0026234   6.8924 353.2603 14.10664357507549

Отслеживайте NOAA 16 DEB в реальном времени с AllMySat

Download on the App Store